User: anonymous   Login
Location: ?????
(30.2541°N, 31.0910°E)
Time: 03:03:49
(UTC+00:00)
Language:

ARIANE 5 R/B - Orbit

View from above orbital plane
View from above orbital plane
View from above satellite
View from above satellite

Ground track
Ground track

The orbit data is extracted from the following two-line orbital elements,

1 27387U 02009B   24103.53709654  .00000172  00000-0  74423-4 0  9991
2 27387  98.7964  92.2479 0031488 316.0157  43.8523 14.36357318159104
Epoch (UTC): 12 April 2024 12:53:25
Eccentricity: 0.0031488
inclination: 98.7964°
perigee height: 748 km
apogee height: 793 km
right ascension of ascending node: 92.2479°
argument of perigee: 316.0157°
revolutions per day: 14.36357318
mean anomaly at epoch: 43.8523°
orbit number at epoch: 15910

The dashed part of the orbit path shows where the satellite is in the earth's shadow,  

DLR